Wind_Speed
32 31 34 41 42 38 33 35 35 36 41 37 38 39 35 29 27 19 12 7 11 24 24 33 28 21 17 14 18 13 12 14 14 16 16 17 18 18 19 21 22 22 21 21 22 21 22 23 23
30 33 34 38 45 38 35 32 35 38 42 43 38 41 39 36 24 22 25 28 27 23 19 32 28 23 20 20 19 17 18 17 17 18 20 20 20 20 22 22 23 24 25 25 25 25 25 25 26
30 32 36 38 41 36 30 30 36 45 44 47 41 40 44 38 36 17 32 49 53 40 26 24 29 27 26 27 26 24 24 22 23 23 24 22 25 25 26 26 27 27 28 28 29 29 30 29 30
34 34 36 37 40 36 30 33 45 49 49 47 50 46 49 48 42 42 40 38 49 38 39 29 29 29 29 33 32 32 30 28 27 27 28 27 25 29 29 31 30 31 32 30 30 32 32 32 33
36 37 39 40 43 41 34 42 52 51 50 44 48 54 54 59 53 43 46 54 52 44 44 43 30 31 31 33 34 37 40 39 34 32 33 32 31 30 31 31 32 31 32 32 34 36 35 35 35
30 33 37 40 41 38 37 46 49 48 48 51 48 53 55 59 57 36 39 58 63 57 49 48 39 35 36 40 40 41 41 43 42 40 38 37 36 34 35 33 33 34 35 35 34 34 35 37 39
26 30 34 38 38 37 39 44 44 45 48 55 55 53 53 64 75 71 60 52 52 61 52 47 44 42 45 47 45 46 46 45 44 45 45 42 42 41 39 39 40 39 38 40 40 39 38 38 38
19 23 30 33 35 35 42 44 42 43 50 54 53 55 57 68 79 78 72 65 62 57 53 50 51 53 58 53 53 54 52 53 51 51 49 49 50 50 48 47 44 43 43 45 45 44 45 45 45
19 20 20 22 27 23 34 43 43 49 49 48 52 51 59 67 80 80 78 72 64 56 57 64 63 61 60 57 59 61 60 60 57 56 55 54 53 53 54 56 55 53 53 51 50 49 48 49 47
22 23 21 30 27 21 30 32 24 41 47 51 50 54 65 72 76 77 78 78 77 73 68 69 71 71 68 63 63 64 64 64 63 63 61 61 60 60 62 63 62 61 59 59 59 57 57 55 53
26 25 28 30 32 29 28 38 31 32 33 39 53 56 60 63 73 77 81 79 79 81 80 75 74 74 75 75 74 72 70 68 68 68 66 65 64 58 55 67 73 72 71 70 68 67 65 64 60
28 29 30 31 35 35 33 37 38 38 38 39 36 48 59 65 65 69 77 81 82 84 85 84 82 81 80 80 80 78 78 79 77 75 74 72 69 64 60 64 65 68 69 70 76 73 72 70 67
31 32 33 35 40 39 41 40 41 38 44 45 43 42 48 53 65 69 69 71 78 81 86 87 87 87 86 86 88 88 84 84 84 85 83 80 76 70 66 58 50 60 55 51 69 76 79 74 71
32 34 36 37 40 45 46 43 44 43 48 51 51 49 50 52 54 60 65 69 73 76 79 82 86 89 89 90 91 92 93 90 87 87 90 89 86 79 81 66 64 69 65 65 59 77 75 70 67
38 40 42 43 45 47 52 47 46 47 54 53 56 57 57 55 59 64 66 68 70 68 71 77 81 81 85 89 92 94 95 97 97 93 90 92 92 89 89 89 90 86 81 73 60 58 68 58 70
42 42 42 44 47 51 55 53 49 51 55 57 58 59 60 62 64 68 71 71 72 73 73 74 74 75 78 82 87 91 94 94 94 94 95 95 94 94 93 93 92 88 90 86 81 65 64 77 81
42 42 39 38 40 45 49 48 48 49 51 55 60 61 61 62 65 70 74 74 74 77 79 80 80 80 80 81 82 83 85 88 91 94 95 95 94 94 93 95 93 95 94 95 95 94 93 99 92
41 42 39 38 39 44 46 51 47 50 53 57 62 63 63 64 66 69 73 76 77 79 81 82 84 85 86 87 86 87 87 88 89 90 92 93 94 94 94 93 93 97 98 99 100 99 98 97 96
41 42 41 39 40 44 45 50 53 51 51 54 60 62 66 67 69 72 73 74 79 82 82 84 86 88 89 89 90 91 92 92 93 93 94 93 93 92 90 92 94 96 98 99 99 99 96 95 99
41 41 42 45 45 47 46 51 50 54 52 57 61 66 68 67 68 72 76 77 80 83 85 86 87 89 91 91 92 94 96 97 97 98 97 98 97 96 94 92 91 90 94 97 96 92 83 86 88
42 42 42 44 43 43 43 47 47 53 57 59 62 70 73 71 71 72 72 74 75 79 82 84 87 89 90 91 93 95 95 96 99 100 102 103 102 101 100 98 95 95 94 92 94 89 81 75 81
42 41 40 40 42 45 43 47 54 58 62 66 66 66 66 67 69 71 73 75 75 79 80 83 87 90 90 92 93 93 94 95 97 99 102 102 104 104 103 102 101 100 100 97 94 95 92 82 71
40 39 37 39 41 44 50 51 55 65 66 63 59 53 54 57 56 57 62 63 66 69 70 70 72 76 80 84 86 89 90 91 94 97 97 99 102 102 103 103 103 103 103 102 99 96 95 92 87
38 37 38 40 42 47 53 55 59 62 63 60 54 50 48 45 45 49 51 51 48 49 51 51 54 58 62 66 70 75 80 85 89 91 93 94 97 100 102 102 102 101 101 102 103 101 98 95 92
36 35 40 40 45 48 54 57 59 59 55 52 53 48 46 49 48 47 42 42 43 45 45 48 51 51 53 56 61 65 68 72 76 80 85 88 92 96 98 100 101 100 100 99 101 101 101 97 93
36 35 40 45 48 53 55 57 54 54 51 53 49 44 41 49 53 48 43 39 40 43 43 45 47 49 48 50 54 57 59 63 64 65 68 72 76 83 87 90 91 95 97 98 98 96 97 98 93
38 38 41 45 49 54 56 53 56 54 55 63 60 55 45 49 53 47 42 41 41 43 45 45 47 51 50 51 54 55 55 54 55 56 57 59 62 65 69 73 76 78 81 85 89 92 93 93 89
43 42 44 43 47 50 54 55 56 55 54 61 62 55 50 51 51 45 40 40 42 42 44 43 43 44 44 48 49 48 50 50 49 50 51 52 54 55 57 60 63 66 67 69 73 77 81 84 85
47 44 44 46 46 45 49 57 58 60 53 58 64 58 53 54 56 42 35 37 41 43 41 41 41 40 43 40 38 38 38 38 38 40 42 43 44 47 46 48 50 52 54 56 59 62 67 70 73
46 46 45 45 45 47 50 55 64 59 59 56 59 63 54 54 56 41 35 37 43 43 40 40 38 40 35 35 35 35 35 34 34 34 36 37 38 40 41 40 42 42 43 45 48 53 56 58 63
Wind_Direction
227 227 231 230 228 224 225 222 219 218 221 209 196 196 194 197 198 194 178 216 234 220 229 234 224 225 220 209 216 209 226 246 247 253 235 229 224 224 224 220 220 228 232 236 239 240 241 247 253
227 228 230 233 232 229 227 224 221 231 224 212 207 204 201 198 191 212 236 223 236 238 253 235 221 226 222 223 220 227 235 234 247 261 259 247 246 243 241 239 234 230 232 237 241 242 243 247 251
233 231 233 232 233 231 229 224 226 239 229 209 210 209 211 210 197 223 242 237 229 238 248 263 246 232 229 229 233 234 240 246 243 246 253 257 252 252 253 252 253 249 243 240 241 242 244 246 249
237 237 236 239 239 238 231 229 235 237 232 217 204 217 214 212 198 238 214 223 225 238 235 245 252 230 235 239 239 239 237 241 242 250 253 252 253 255 253 255 259 264 264 261 258 256 254 251 251
239 239 242 244 244 241 236 235 235 234 235 230 213 215 222 227 228 255 244 236 233 241 232 245 244 244 239 243 241 242 241 244 243 242 247 248 250 251 256 257 253 259 264 265 267 267 265 264 262
237 240 243 246 248 248 246 242 243 240 238 238 229 222 228 222 223 210 218 236 232 245 240 249 256 257 251 249 248 247 247 246 248 246 244 247 248 251 254 257 253 254 258 263 263 263 265 267 268
239 239 240 242 242 242 245 243 241 245 242 237 234 228 230 233 231 238 239 260 249 248 253 256 262 260 258 255 250 248 247 250 251 253 251 251 253 254 253 252 254 254 254 256 262 265 263 268 273
247 246 247 249 252 250 249 247 244 242 244 239 240 235 232 236 233 247 250 247 254 253 254 259 258 255 254 251 255 255 253 252 250 250 252 252 253 254 256 258 258 257 257 257 258 261 264 267 271
250 253 257 259 250 246 251 251 252 246 242 244 247 241 236 239 242 242 243 243 248 256 257 258 253 252 257 253 256 254 256 256 255 255 254 255 256 257 258 259 259 259 261 260 258 259 261 265 268
258 257 258 259 258 256 261 254 253 253 245 245 243 244 240 239 241 244 245 245 244 249 256 261 260 257 256 257 259 258 256 256 258 259 259 258 261 261 261 262 261 262 261 263 265 265 264 266 268
265 262 263 264 263 253 256 270 257 261 259 248 241 244 245 245 247 246 247 248 249 248 249 251 256 260 261 258 258 259 259 258 258 257 258 260 261 264 269 266 263 262 264 264 265 264 264 266 266
269 269 268 269 267 264 259 260 264 268 260 259 248 246 249 248 246 249 249 250 251 251 250 250 252 255 257 257 258 260 260 257 256 258 258 259 257 258 264 268 262 263 265 269 266 262 262 263 265
274 272 271 269 271 270 265 260 262 261 267 264 256 249 249 251 254 252 251 251 251 252 252 252 252 253 254 257 259 257 255 260 261 259 257 257 257 252 261 258 260 257 252 270 272 262 258 261 262
279 278 276 273 273 273 269 267 265 264 263 264 264 259 253 255 254 256 259 258 253 252 252 253 253 254 254 254 256 258 257 255 257 261 260 257 257 254 253 252 254 252 261 273 272 261 257 260 264
283 280 277 275 272 273 272 270 272 269 266 265 264 262 261 258 257 257 256 257 259 257 257 257 255 253 253 254 255 257 259 259 256 255 257 258 258 255 256 255 254 258 258 266 271 261 253 257 261
284 281 279 276 275 272 272 274 271 270 271 270 266 264 265 264 262 262 261 261 261 262 261 259 258 257 257 257 257 256 257 257 258 257 254 255 256 257 256 255 257 258 259 256 255 253 254 262 269
284 282 280 278 278 275 279 277 273 270 268 268 269 268 266 266 266 265 265 262 262 262 262 263 262 261 260 260 259 259 259 260 260 258 256 255 253 253 254 255 256 256 255 256 257 257 256 263 270
284 283 281 279 278 278 279 278 275 276 275 274 273 272 268 266 266 266 267 267 265 263 262 262 262 262 261 261 262 261 261 261 261 261 261 259 256 253 251 251 254 257 259 259 259 259 258 261 264
287 287 284 278 278 279 281 280 280 276 275 274 275 273 274 272 269 268 266 266 267 266 264 263 263 262 262 261 261 261 261 261 261 261 261 261 261 259 255 253 250 251 254 255 256 259 259 260 263
290 289 289 288 286 283 287 286 289 289 284 281 280 282 277 273 274 274 272 270 268 268 268 267 265 264 262 261 260 260 260 261 260 260 261 261 260 260 260 257 255 252 253 254 255 255 260 259 262
290 291 291 292 291 290 289 288 292 291 292 291 289 287 287 287 284 281 279 274 271 269 267 267 267 266 264 263 262 261 261 261 261 261 261 260 260 260 259 259 258 257 255 255 258 258 257 256 259
292 292 290 289 290 292 293 295 296 295 296 297 297 294 290 286 282 279 277 276 274 271 270 268 268 267 267 265 264 263 260 260 260 261 260 259 261 260 259 259 259 258 259 257 255 257 258 255 254
287 288 285 286 290 294 296 300 306 306 302 298 295 293 288 287 290 289 284 281 277 276 275 273 271 270 269 268 267 266 265 262 261 259 258 258 259 259 259 259 257 257 257 259 258 256 256 257 257
285 283 284 287 291 297 303 305 306 306 308 310 307 301 298 305 306 299 290 286 284 283 281 280 278 276 274 273 271 269 267 266 264 262 260 259 258 258 258 258 257 257 256 256 257 257 256 256 257
280 283 285 289 295 298 300 306 313 313 313 318 317 307 301 309 313 305 290 287 286 285 286 285 284 283 280 278 275 272 269 266 266 266 265 263 262 260 259 258 257 256 256 256 256 256 257 256 256
279 286 288 295 296 300 305 310 318 323 323 326 323 308 305 315 321 312 297 295 294 290 289 287 288 288 289 286 280 276 273 272 271 268 266 265 263 261 260 259 256 255 254 255 255 255 256 257 257
280 285 289 293 298 306 311 320 327 330 328 330 332 327 313 318 322 315 294 298 300 297 294 293 293 292 292 287 286 284 279 277 274 269 266 264 264 263 261 258 256 254 253 252 252 252 253 255 256
281 284 289 291 301 306 312 318 321 333 328 325 327 327 320 320 323 315 292 295 301 300 298 298 297 293 293 290 287 287 283 282 278 274 269 267 265 264 262 260 257 255 253 252 251 251 252 253 253
281 284 289 294 302 308 312 312 320 328 326 322 325 328 324 321 327 317 295 300 307 305 304 304 301 300 299 299 298 293 290 285 280 276 272 270 269 265 263 262 258 256 254 252 251 251 250 249 249
283 285 287 299 304 309 309 310 313 328 325 322 325 328 323 326 329 315 302 308 310 312 312 306 308 307 304 306 303 299 296 290 281 276 273 270 266 263 259 258 258 256 252 250 248 248 247 246 245
Height
10928 10932 10934 10936 10937 10943 10949 10953 10957 10959 10957 10965 10971 10971 10970 10973 10974 10979 10981 10986 10980 10976 10976 10975 10974 10977 10979 10981 10983 10985 10988 10991 10992 10992 10992 10991 10991 10991 10993 10994 10995 10996 10996 10996 10997 10997 10998 10999 11000
10925 10927 10929 10930 10932 10938 10944 10952 10955 10953 10953 10960 10966 10962 10964 10966 10975 10973 10973 10977 10974 10972 10972 10971 10969 10972 10974 10979 10981 10982 10985 10986 10987 10988 10989 10988 10988 10988 10989 10989 10990 10990 10990 10992 10992 10992 10993 10994 10995
10920 10922 10924 10924 10926 10933 10942 10949 10949 10941 10948 10955 10962 10959 10955 10959 10970 10970 10969 10964 10961 10962 10963 10964 10966 10969 10970 10973 10976 10977 10980 10982 10982 10983 10984 10984 10983 10983 10984 10984 10985 10985 10985 10985 10986 10987 10987 10988 10988
10916 10918 10919 10920 10923 10929 10939 10942 10938 10933 10938 10947 10958 10953 10950 10953 10966 10966 10960 10957 10953 10955 10956 10960 10963 10963 10965 10968 10970 10972 10974 10976 10976 10976 10976 10977 10977 10979 10979 10979 10980 10981 10981 10981 10982 10983 10983 10982 10983
10910 10913 10914 10914 10916 10922 10932 10932 10925 10927 10931 10941 10951 10948 10948 10952 10960 10964 10954 10942 10943 10951 10953 10956 10959 10960 10961 10963 10964 10965 10966 10968 10968 10969 10970 10970 10970 10970 10972 10973 10973 10975 10976 10976 10976 10976 10977 10977 10977
10905 10907 10907 10909 10913 10920 10924 10919 10922 10924 10927 10932 10939 10944 10946 10948 10942 10907 10909 10927 10936 10944 10949 10950 10953 10954 10955 10956 10956 10956 10957 10959 10961 10963 10964 10965 10965 10964 10965 10966 10967 10968 10969 10970 10970 10970 10971 10971 10971
10900 10901 10901 10902 10905 10911 10912 10913 10914 10920 10922 10922 10923 10938 10948 10935 10912 10903 10904 10916 10925 10937 10943 10946 10947 10948 10946 10947 10946 10946 10948 10951 10953 10955 10956 10957 10957 10958 10959 10959 10959 10960 10960 10961 10961 10962 10963 10964 10965
10895 10896 10896 10898 10901 10907 10902 10904 10909 10913 10908 10913 10920 10927 10935 10927 10914 10899 10904 10915 10921 10936 10944 10941 10935 10929 10928 10934 10934 10935 10938 10941 10943 10945 10947 10948 10950 10950 10950 10951 10951 10952 10952 10952 10952 10953 10954 10956 10957
10892 10892 10893 10892 10892 10897 10894 10896 10902 10898 10901 10907 10911 10920 10926 10917 10901 10903 10906 10920 10925 10928 10926 10915 10916 10914 10920 10924 10926 10925 10928 10931 10934 10938 10939 10939 10942 10944 10943 10942 10941 10941 10942 10943 10943 10943 10944 10945 10947
10887 10887 10888 10882 10887 10891 10886 10888 10890 10888 10897 10896 10901 10900 10896 10896 10901 10900 10900 10904 10906 10910 10909 10905 10904 10906 10911 10913 10914 10913 10916 10919 10923 10923 10925 10928 10931 10930 10930 10929 10931 10931 10931 10932 10934 10935 10935 10936 10938
10882 10883 10881 10880 10878 10882 10884 10875 10882 10882 10883 10884 10891 10888 10885 10889 10889 10891 10889 10888 10890 10892 10893 10897 10895 10894 10895 10898 10898 10900 10902 10906 10909 10910 10913 10914 10916 10917 10916 10916 10918 10918 10920 10920 10922 10923 10924 10925 10925
10876 10876 10875 10875 10871 10872 10875 10871 10873 10873 10873 10874 10879 10881 10876 10874 10875 10871 10876 10877 10879 10878 10877 10882 10883 10882 10880 10880 10881 10883 10884 10888 10894 10895 10897 10899 10902 10902 10902 10904 10902 10904 10905 10908 10907 10907 10909 10910 10912
10869 10869 10869 10868 10863 10863 10862 10864 10864 10868 10862 10862 10866 10870 10866 10865 10864 10862 10862 10861 10863 10864 10862 10866 10869 10866 10869 10866 10863 10867 10876 10873 10876 10878 10879 10883 10887 10890 10891 10891 10889 10887 10888 10892 10893 10892 10893 10894 10898
10862 10861 10860 10860 10857 10852 10850 10854 10856 10859 10853 10851 10851 10855 10856 10857 10857 10849 10846 10844 10846 10848 10848 10848 10851 10851 10852 10850 10848 10845 10849 10858 10863 10861 10859 10864 10869 10875 10872 10875 10876 10877 10873 10878 10877 10878 10881 10885 10888
10853 10852 10851 10850 10847 10843 10837 10844 10847 10846 10836 10840 10840 10839 10840 10843 10838 10833 10832 10830 10828 10835 10834 10833 10835 10837 10835 10835 10835 10832 10830 10834 10841 10847 10844 10843 10848 10855 10856 10856 10860 10861 10865 10866 10866 10865 10871 10870 10872
10842 10842 10841 10839 10836 10831 10826 10833 10837 10831 10826 10824 10824 10824 10826 10824 10822 10817 10816 10818 10817 10816 10816 10817 10818 10819 10818 10816 10816 10816 10813 10813 10815 10820 10826 10826 10829 10833 10835 10837 10839 10843 10847 10850 10852 10858 10853 10852 10857
10832 10831 10832 10831 10825 10819 10814 10818 10818 10819 10817 10810 10805 10808 10811 10812 10808 10802 10797 10801 10803 10798 10797 10797 10797 10799 10799 10798 10798 10798 10797 10793 10793 10795 10797 10802 10809 10813 10817 10819 10819 10820 10827 10829 10830 10837 10839 10836 10839
10822 10819 10821 10821 10816 10810 10808 10802 10808 10805 10801 10796 10790 10791 10794 10794 10793 10787 10782 10780 10781 10779 10778 10777 10776 10777 10776 10776 10778 10778 10777 10775 10775 10774 10772 10775 10780 10789 10797 10803 10805 10803 10805 10805 10806 10813 10821 10821 10820
10810 10807 10806 10809 10807 10802 10800 10790 10789 10793 10789 10784 10777 10775 10773 10773 10772 10769 10767 10764 10758 10755 10758 10756 10756 10754 10754 10755 10755 10754 10753 10754 10752 10752 10753 10754 10756 10761 10770 10777 10783 10784 10781 10779 10784 10789 10798 10804 10801
10800 10797 10794 10791 10792 10790 10787 10780 10777 10769 10774 10768 10764 10758 10756 10757 10754 10748 10744 10745 10739 10736 10732 10732 10730 10728 10728 10730 10732 10730 10729 10728 10728 10728 10730 10729 10734 10736 10741 10749 10755 10763 10760 10759 10764 10770 10778 10785 10784
10790 10788 10785 10781 10780 10777 10777 10771 10769 10761 10756 10754 10749 10742 10737 10736 10730 10724 10724 10717 10716 10711 10709 10708 10702 10701 10701 10703 10703 10703 10706 10706 10702 10703 10703 10704 10706 10711 10716 10720 10728 10732 10736 10743 10742 10747 10758 10766 10768
10781 10779 10775 10772 10769 10764 10765 10762 10754 10753 10743 10735 10731 10724 10718 10713 10706 10703 10697 10693 10692 10686 10686 10682 10678 10675 10676 10674 10674 10675 10677 10679 10678 10678 10677 10679 10680 10683 10689 10694 10700 10705 10706 10716 10726 10726 10733 10745 10750
10773 10770 10768 10764 10761 10757 10752 10753 10746 10732 10726 10721 10716 10709 10701 10695 10689 10682 10676 10671 10665 10663 10662 10659 10655 10652 10649 10648 10648 10648 10648 10650 10651 10649 10652 10653 10654 10657 10660 10665 10673 10679 10684 10689 10699 10708 10711 10717 10729
10764 10762 10759 10756 10753 10748 10741 10740 10737 10725 10714 10703 10698 10691 10685 10681 10676 10665 10660 10654 10650 10646 10643 10642 10637 10632 10630 10628 10627 10624 10623 10622 10622 10621 10625 10628 10629 10630 10633 10637 10645 10652 10661 10666 10669 10677 10685 10696 10704
10755 10754 10749 10748 10744 10740 10736 10730 10722 10711 10703 10694 10686 10679 10675 10668 10662 10653 10647 10642 10638 10634 10631 10627 10621 10618 10614 10611 10606 10602 10600 10598 10597 10597 10598 10602 10602 10603 10605 10611 10619 10626 10633 10640 10646 10653 10659 10669 10680
10746 10746 10741 10736 10732 10728 10722 10717 10711 10700 10693 10686 10680 10671 10665 10656 10647 10637 10633 10631 10626 10622 10619 10614 10609 10603 10600 10595 10588 10584 10581 10579 10577 10575 10574 10573 10574 10574 10577 10583 10591 10597 10605 10612 10621 10630 10635 10641 10654
10738 10738 10733 10727 10722 10711 10707 10704 10696 10689 10680 10671 10665 10658 10653 10647 10638 10629 10623 10619 10615 10611 10606 10603 10597 10591 10587 10580 10573 10566 10563 10561 10559 10555 10554 10553 10552 10553 10554 10558 10564 10571 10579 10587 10595 10605 10612 10619 10630
10728 10728 10725 10722 10716 10709 10694 10693 10691 10687 10677 10668 10659 10651 10643 10636 10631 10621 10615 10610 10606 10601 10595 10591 10585 10579 10575 10567 10559 10553 10549 10546 10542 10539 10536 10537 10536 10535 10537 10539 10544 10550 10557 10565 10572 10581 10590 10597 10605
10716 10717 10714 10711 10708 10703 10697 10681 10682 10680 10672 10662 10652 10644 10637 10628 10620 10611 10606 10601 10596 10590 10585 10579 10574 10568 10561 10553 10546 10540 10535 10531 10528 10525 10523 10522 10522 10523 10523 10525 10529 10533 10539 10546 10553 10560 10566 10574 10580
10708 10705 10703 10701 10695 10690 10686 10679 10667 10669 10661 10655 10645 10635 10625 10618 10612 10603 10597 10592 10586 10580 10575 10569 10564 10557 10549 10542 10536 10529 10524 10519 10515 10513 10511 10510 10510 10510 10510 10513 10514 10519 10524 10530 10536 10541 10546 10553 10559